Date String (YYYY-MM-DD hh:mm:ss) UTC,Instrument flags,absolute air pressure of the measurement (hPa),sample flow rate (lpm),inlet stack bypass flow (lpm),air temperature of the measurement (°C),ambient temperature measured by the external sensor (°C),aerosol sample conditioner tube jacket temperature (°C),OPC LED temperature (°C),internal box temperature (°C),relative humidity of the measurement (%),span deviation,mass concentration of particles derived from Lorenz-Mie calculation of OPC scattering (μg/m³),mass concentration of particles derived from Lorenz-Mie calculation of OPC scattering (μg/m³),mass concentration of particles derived from Lorenz-Mie calculation of OPC scattering (μg/m³)
DateTimeUTC,F1_M11,P_M11,Q1_M11,Q2_M11,T1_M11,T2_M11,T3_M11,T4_M11,T5_M11,U1_M11,ZSPAN_M11,X2_M11,X0_M11,X1_M11
2023-06-05 10:00:00,SystemResetWarning,0835.1,5.00,000.00,030.3,028.8,000.0,038.7,032.0,29.9,0000.0,0003.85,0005.80,0003.63
2023-06-05 10:01:00,SystemResetWarning,0835.1,5.00,000.00,030.3,028.8,000.0,038.7,032.0,29.9,0000.0,0003.89,0005.57,0003.65
2023-06-05 10:02:00,SystemResetWarning,0835.1,5.00,000.00,030.3,028.8,000.0,038.7,032.0,29.9,0000.0,0003.93,0005.85,0003.69
2023-06-05 10:03:00,SystemResetWarning,0835.1,5.00,000.00,030.3,028.8,000.0,038.7,032.0,29.9,0000.0,0003.97,0006.36,0003.72
2023-06-05 10:04:00,SystemResetWarning,0835.1,5.00,000.00,030.3,028.8,000.0,038.7,032.0,29.9,0000.0,0004.01,0006.46,0003.75
2023-06-05 10:05:00,SystemResetWarning,0835.2,5.00,000.00,030.3,028.8,000.0,038.7,032.0,29.9,0000.0,0004.06,0006.54,0003.78
2023-06-05 10:06:00,SystemResetWarning,0835.2,5.00,000.00,030.3,028.8,000.0,038.7,032.0,29.9,0000.0,0004.08,0006.57,0003.81
2023-06-05 10:07:00,SystemResetWarning,0835.1,5.00,000.00,030.3,028.8,000.0,038.7,032.0,29.8,0000.0,0004.08,0006.85,0003.80
2023-06-05 10:08:00,SystemResetWarning,0835.1,5.01,000.00,030.3,028.8,000.0,038.7,032.0,29.9,0000.0,0004.06,0006.78,0003.79
2023-06-05 10:09:00,SystemResetWarning,0835.1,5.01,000.00,030.3,028.8,000.0,038.7,032.0,29.9,0000.0,0004.06,0006.60,0003.79
2023-06-05 10:10:00,SystemResetWarning,0835.1,5.00,000.00,030.3,028.8,000.0,038.7,031.9,29.9,0000.0,0004.05,0006.55,0003.79
2023-06-05 10:11:00,SystemResetWarning,0835.1,5.00,000.00,030.3,028.8,000.0,038.7,031.9,29.9,0000.0,0004.02,0006.43,0003.78
2023-06-05 10:12:00,SystemResetWarning,0835.1,5.00,000.00,030.3,028.8,000.0,038.7,031.9,29.9,0000.0,0004.00,0006.36,0003.79
2023-06-05 10:13:00,SystemResetWarning,0835.1,5.00,000.00,030.3,028.8,000.0,038.7,031.9,29.9,0000.0,0004.03,0006.33,0003.79
2023-06-05 10:14:00,SystemResetWarning,0835.1,5.00,000.00,030.3,028.7,000.0,038.7,031.9,30.0,0000.0,0004.07,0006.50,0003.81
2023-06-05 10:15:00,SystemResetWarning,0835.1,5.00,000.00,030.3,028.7,000.0,038.7,031.9,30.0,0000.0,0004.08,0006.58,0003.81
2023-06-05 10:16:00,SystemResetWarning,0835.1,5.00,000.00,030.3,028.7,000.0,038.7,031.9,30.0,0000.0,0004.10,0006.70,0003.82
2023-06-05 10:17:00,SystemResetWarning,0835.0,5.00,000.00,030.3,028.7,000.0,038.7,031.9,29.9,0000.0,0004.14,0007.00,0003.83
2023-06-05 10:18:00,SystemResetWarning,0835.0,5.00,000.00,030.3,028.7,000.0,038.7,031.9,29.9,0000.0,0004.18,0006.88,0003.86
2023-06-05 10:19:00,SystemResetWarning,0835.0,5.00,000.00,030.3,028.8,000.0,038.7,031.9,29.9,0000.0,0004.20,0007.10,0003.88
2023-06-05 10:20:00,SystemResetWarning,0835.0,5.00,000.00,030.3,028.8,000.0,038.7,031.9,29.8,0000.0,0004.21,0007.36,0003.90
2023-06-05 10:21:00,SystemResetWarning,0835.0,4.99,000.00,030.3,028.8,000.0,038.7,031.9,29.8,0000.0,0004.26,0007.45,0003.93
2023-06-05 10:22:00,SystemResetWarning,0835.0,5.00,000.00,030.3,028.8,000.0,038.7,031.9,29.9,0002.3,0004.31,0007.70,0003.96
2023-06-05 10:23:00,SystemResetWarning,0835.0,5.00,000.00,030.3,028.8,000.0,038.7,032.0,29.9,0003.3,0004.33,0007.70,0003.99
2023-06-05 10:24:00,SystemResetWarning,0835.0,5.00,000.00,030.3,028.8,000.0,038.7,032.0,29.8,0003.5,0004.32,0007.70,0004.00
2023-06-05 10:25:00,SystemResetWarning,0835.0,5.01,000.00,030.3,028.8,000.0,038.7,032.0,29.8,0003.3,0004.28,0007.58,0004.00
2023-06-05 10:26:00,SystemResetWarning,0835.0,5.01,000.00,030.3,028.8,000.0,038.7,032.0,29.8,0003.1,0004.32,0007.66,0004.04
2023-06-05 10:27:00,SystemResetWarning,0835.0,5.00,000.00,030.3,028.8,000.0,038.7,032.0,29.7,0002.7,0004.31,0007.67,0004.04
2023-06-05 10:28:00,SystemResetWarning,0835.0,5.00,000.00,030.3,028.8,000.0,038.7,032.0,29.6,0002.6,0004.23,0007.44,0004.00
2023-06-05 10:29:00,SystemResetWarning,0835.0,4.99,000.00,030.3,028.8,000.0,038.7,032.0,29.5,0002.5,0004.17,0007.36,0003.96
2023-06-05 10:30:00,SystemResetWarning,0835.0,4.99,000.00,030.3,028.8,000.0,038.7,032.0,29.5,0002.3,0004.14,0007.10,0003.92
2023-06-05 10:31:00,SystemResetWarning,0835.0,5.00,000.00,030.3,028.8,000.0,038.7,032.0,29.4,0002.0,0004.10,0006.78,0003.86
2023-06-05 10:32:00,SystemResetWarning,0835.0,5.01,000.00,030.3,028.8,000.0,038.7,032.0,29.4,0001.6,0004.04,0006.85,0003.80
2023-06-05 10:33:00,SystemResetWarning,0835.0,5.01,000.00,030.3,028.8,000.0,038.7,032.0,29.4,0000.0,0003.97,0006.73,0003.74
2023-06-05 10:34:00,SystemResetWarning,0835.1,4.98,000.00,030.3,028.8,000.0,038.7,032.0,29.4,0000.0,0003.90,0006.64,0003.67
2023-06-05 10:35:00,SystemResetWarning,0835.1,4.99,000.00,030.4,028.8,000.0,038.7,032.0,29.3,0000.0,0003.84,0006.44,0003.60
2023-06-05 10:36:00,SystemResetWarning,0835.1,5.01,000.00,030.3,028.8,000.0,038.7,032.0,29.3,0000.0,0003.80,0005.94,0003.56
2023-06-05 10:37:00,SystemResetWarning,0835.1,5.00,000.00,030.3,028.8,000.0,038.7,032.0,29.3,0000.0,0003.73,0005.60,0003.49
2023-06-05 10:38:00,SystemResetWarning,0835.1,5.00,000.00,030.4,028.8,000.0,038.8,032.0,29.3,0000.0,0003.68,0005.52,0003.45
2023-06-05 10:39:00,SystemResetWarning,0835.1,4.99,000.00,030.4,028.8,000.0,038.8,032.0,29.3,0000.0,0003.67,0005.58,0003.43
2023-06-05 10:40:00,SystemResetWarning,0835.0,4.99,000.00,030.4,028.8,000.0,038.8,032.0,29.3,0000.0,0003.68,0005.67,0003.42
2023-06-05 10:41:00,SystemResetWarning,0835.1,5.02,000.00,030.4,028.8,000.0,038.8,032.0,29.4,0000.0,0003.69,0005.69,0003.44
2023-06-05 10:42:00,SystemResetWarning,0835.1,5.01,000.00,030.4,028.8,000.0,038.8,032.0,29.4,0000.0,0003.71,0005.75,0003.46
2023-06-05 10:43:00,SystemResetWarning,0835.1,5.00,000.00,030.4,028.8,000.0,038.8,032.0,29.6,0000.0,0003.74,0005.69,0003.50
2023-06-05 10:44:00,SystemResetWarning,0835.1,5.00,000.00,030.4,028.8,000.0,038.8,032.0,29.6,0000.0,0003.80,0005.54,0003.55
2023-06-05 10:45:00,SystemResetWarning,0835.1,5.00,000.00,030.4,028.8,000.0,038.8,032.0,29.6,0000.0,0003.85,0005.67,0003.58
2023-06-05 10:46:00,SystemResetWarning,0835.2,4.99,000.00,030.4,028.8,000.0,038.8,032.0,29.6,0000.0,0003.92,0005.88,0003.64
2023-06-05 10:47:00,SystemResetWarning,0835.1,5.00,000.00,030.4,028.8,000.0,038.8,032.0,29.7,0000.0,0004.00,0006.08,0003.70
2023-06-05 10:48:00,SystemResetWarning,0835.1,5.02,000.00,030.4,028.9,000.0,038.8,032.0,29.7,0000.0,0004.05,0006.20,0003.74
2023-06-05 10:49:00,SystemResetWarning,0835.2,5.00,000.00,030.4,028.9,000.0,038.8,032.0,29.7,0000.0,0004.09,0006.18,0003.78
2023-06-05 10:50:00,SystemResetWarning,0835.2,4.99,000.00,030.4,028.9,000.0,038.8,032.0,29.7,0000.0,0004.15,0006.36,0003.83
2023-06-05 10:51:00,SystemResetWarning,0835.2,4.99,000.00,030.4,028.8,000.0,038.8,032.0,29.7,0000.0,0004.20,0006.55,0003.88
2023-06-05 10:52:00,SystemResetWarning,0835.2,5.00,000.00,030.4,028.8,000.0,038.8,032.0,29.7,0000.0,0004.26,0006.78,0003.93
2023-06-05 10:53:00,SystemResetWarning,0835.2,5.01,000.00,030.4,028.8,000.0,038.8,032.0,29.7,0000.0,0004.32,0006.89,0003.99
2023-06-05 10:54:00,SystemResetWarning,0835.1,5.01,000.00,030.4,028.8,000.0,038.8,032.0,29.7,0000.0,0004.37,0006.93,0004.02
2023-06-05 10:55:00,SystemResetWarning,0835.2,5.01,000.00,030.4,028.8,000.0,038.8,032.0,29.7,0001.0,0004.38,0006.84,0004.04
2023-06-05 10:56:00,SystemResetWarning,0835.1,5.00,000.00,030.4,028.8,000.0,038.8,032.0,29.7,0003.1,0004.41,0006.97,0004.06
2023-06-05 10:57:00,SystemResetWarning,0835.2,5.00,000.00,030.4,028.8,000.0,038.8,032.0,29.7,0002.9,0004.41,0006.91,0004.09
2023-06-05 10:58:00,SystemResetWarning,0835.1,4.99,000.00,030.4,028.8,000.0,038.8,032.0,29.7,0000.0,0004.42,0006.91,0004.10
2023-06-05 10:59:00,SystemResetWarning,0835.2,4.99,000.00,030.4,028.8,000.0,038.8,032.0,29.7,0002.5,0004.44,0006.90,0004.13
